Location: Stoke Bliss
(52.2667°N, 2.5167°W)
Time: 19:26:38
(UTC+00:00)

ERBS - Pass Details

Date: 03 March 2021
Orbit: 408 x 412 km, 57.0° (Epoch: 15 April)

Event Time Altitude Azimuth Distance (km) Brightness Sun altitude
Rises 20:32:34 0° 274° (W) 2,354 7.2 -24.7°
Reaches altitude 10° 20:34:46 10° 283° (WNW) 1,491 6.0 -25.0°
Enters shadow 20:36:55 29° 314° (NW) 786 4.2 -25.3°
